02.03.2018 - 07:25 - 18,18 EUR - devor269
11.02.2018 - 18:42 - 18,47 EUR - rummis
10.02.2018 - 18:28 - 19,42 EUR - meter991
10.02.2018 - 13:59 - 5,27 EUR - upiter17
09.02.2018 - 17:58 - 17,60 EUR - soloz16
09.02.2018 - 06:39 - 141,14 EUR - intlex1
08.02.2018 - 20:17 - 17,85 EUR - shumelina
06.02.2018 - 20:00 - 15,70 EUR - iur005max1712
06.02.2018 - 19:56 - 15,02 EUR - bon3dew
05.02.2018 - 15:12 - 19,57 EUR - cvb145
05.02.2018 - 05:08 - 18,92 EUR - jemt78
05.02.2018 - 04:22 - 18,19 EUR - wtom55
04.02.2018 - 17:44 - 18,19 EUR - roff841
04.02.2018 - 16:15 - 16,43 EUR - fazh22
04.02.2018 - 15:09 - 15,70 EUR - mur001
03.02.2018 - 11:59 - 13,72 EUR - xao75mm
02.02.2018 - 20:47 - 16,97 EUR - zunoss
31.01.2018 - 07:26 - 13,50 EUR - fil7174
30.01.2018 - 16:45 - 14,95 EUR - mad975
30.01.2018 - 04:16 - 18,04 EUR - nup887
29.01.2018 - 19:47 - 15,99 EUR - zaat44
29.01.2018 - 19:27 - 14,26 EUR - hraps3
29.01.2018 - 09:46 - 14,95 EUR - med77s
29.01.2018 - 06:33 - 7,80 EUR - jkog775
28.01.2018 - 17:06 - 9,77 EUR - mercur3
28.01.2018 - 16:56 - 10,43 EUR - saturn9
26.01.2018 - 19:49 - 14,95 EUR - siko76
25.01.2018 - 11:30 - 15,63 EUR - kur003
24.01.2018 - 06:17 - 16,29 EUR - lur002
23.01.2018 - 18:15 - 13,60 EUR - tempass
23.01.2018 - 17:48 - 15,84 EUR - zabers
21.01.2018 - 09:47 - 16,94 EUR - VITAM56
20.01.2018 - 13:09 - 15,55 EUR - tregss4
20.01.2018 - 11:37 - 13,65 EUR - 10fors
19.01.2018 - 21:06 - 15,60 EUR - moon4w
18.01.2018 - 12:36 - 13,40 EUR - ddeep82
18.01.2018 - 11:22 - 17,25 EUR - dasst34
12.01.2018 - 18:34 - 15,74 EUR - fur008
12.01.2018 - 18:33 - 15,75 EUR - cvb145
12.01.2018 - 17:51 - 14,04 EUR - hrenn33
12.01.2018 - 15:49 - 13,00 EUR - vassw6
11.01.2018 - 18:55 - 14,98 EUR - kasa3d
11.01.2018 - 18:52 - 13,68 EUR - ohan5u
11.01.2018 - 18:32 - 13,68 EUR - bonun527
10.01.2018 - 13:58 - 15,93 EUR - holmm8
06.01.2018 - 13:49 - 15,85 EUR - fodesed
06.01.2018 - 13:39 - 13,00 EUR - assawdev
05.01.2018 - 08:23 - 13,03 EUR - wen27s
04.01.2018 - 08:55 - 14,98 EUR - euro38
03.01.2018 - 18:28 - 20,14 EUR - tietjen